[[{"header":{"parameterUnit":"m.s-1","parameterCategory":1,"la1":30.2991,"la2":30.254,"lo1":-89.0895,"lo2":-89.0444,"dy":0.0017,"dx":0.0017,"nx":28,"ny":28,"refTime":"2025-03-29T03:00:00:Z","depth":0,"parameterNumber":2,"parameterNumberName":"U-component_of_WINDS"},"data":[0,0,0,0,0,0,0,0,0,0,0,0,0,0,0,0,0,0,0,0,0,0,0,0,0,0,0,0,0,0,0,0,0,0,0,0,0,0,0,0,0,0,0,0,0,0,0,0,0,0,0,0,0,0,0,0,0,0,-1.7818,-1.7819,0,-1.7964,-1.7965,-1.7967,-1.8026,-1.8025,-1.8025,-1.8025,-1.8181,-1.8186,-1.819,0,0,0,0,0,0,0,0,0,0,0,0,0,-1.7595,-1.7599,-1.7818,-1.7819,-1.7821,-1.7963,-1.7965,-1.7967,-1.8026,-1.8025,-1.8025,-1.8024,-1.818,-1.8185,-1.819,0,0,0,0,0,0,0,0,0,0,0,0,0,-1.7712,-1.76,-1.7817,-1.7867,-1.7873,-1.7963,-1.7965,-1.7968,-1.8026,-1.8025,-1.8025,-1.8024,-1.8178,-1.8185,-1.8191,-1.8244,0,0,-1.8212,-1.8215,0,0,0,0,0,0,0,0,-1.7705,-1.772,-1.7858,-1.7864,-1.7871,-1.7976,-1.7944,-1.8061,-1.8026,-1.7968,-1.8025,-1.8024,-1.8114,-1.8126,-1.8155,-1.8251,-1.8258,-1.8213,-1.8217,-1.822,-1.8221,0,0,0,0,0,0,0,-1.7697,-1.7714,-1.7876,-1.786,-1.7868,-1.7884,-1.79,-1.7967,-1.8043,-1.7973,-1.7978,-1.7994,-1.8117,-1.8148,-1.8159,-1.826,-1.8212,-1.8218,-1.8223,-1.8225,-1.8407,-1.8408,0,0,0,0,0,0,-1.768,-1.7707,-1.7871,-1.788,-1.7785,-1.7889,-1.7907,-1.7943,-1.8042,-1.8056,-1.7994,-1.7996,-1.8137,-1.8151,-1.8164,-1.8232,-1.8219,-1.8226,-1.823,-1.8407,-1.8408,-1.8408,0,0,0,0,0,0,-1.7675,-1.7694,-1.7865,-1.7795,-1.7818,-1.7893,-1.7933,-1.7946,-1.7977,-1.8058,-1.8072,-1.8011,-1.8137,-1.8155,-1.8223,-1.8238,-1.8229,-1.8235,-1.8406,-1.8407,-1.8408,-1.8368,0,0,0,0,0,0,-1.7668,-1.7692,-1.7711,-1.7795,-1.7821,-1.7919,-1.7934,-1.7949,-1.7987,-1.7991,-1.8078,-1.8091,-1.8138,-1.8213,-1.823,-1.8248,-1.824,-1.8405,-1.8406,-1.8408,-1.8368,-1.8368,-1.8367,0,0,0,0,0,-1.766,-1.7696,-1.7712,-1.7731,-1.7847,-1.792,-1.7936,-1.7986,-1.7988,-1.8009,-1.8061,-1.8089,-1.8234,-1.8219,-1.8239,-1.8259,-1.8404,-1.8406,-1.8407,-1.8369,-1.8368,-1.8367,0,0,0,0,0,0,-1.7615,-1.7708,-1.7726,-1.779,-1.7846,-1.793,-1.7958,-1.7984,-1.8043,-1.8044,-1.8106,-1.8126,-1.8188,-1.8231,-1.8213,-1.8315,-1.8321,-1.8327,-1.8285,-1.8285,-1.8284,-1.8273,-1.8246,0,0,0,0,0,-1.7612,-1.7662,-1.7741,-1.7789,-1.7816,-1.7882,-1.7916,-1.795,-1.8012,-1.8036,-1.8094,-1.8154,-1.8214,-1.8252,-1.8311,-1.8375,-1.8395,-1.8398,-1.8398,-1.8397,-1.8401,-1.8437,-1.844,-1.8414,-1.8414,-1.8414,0,0,-1.7607,-1.7664,-1.7692,-1.7782,-1.7829,-1.7881,-1.7902,-1.7956,-1.7995,-1.8046,-1.8112,-1.8156,-1.8229,-1.8294,-1.8326,-1.8332,-1.8412,-1.8399,-1.8398,-1.8403,-1.8439,-1.8442,-1.8444,-1.8415,-1.8415,-1.8415,0,0,-1.7625,-1.7672,-1.7717,-1.7764,-1.7835,-1.7878,-1.7888,-1.7968,-1.7998,-1.8066,-1.8104,-1.8153,-1.8254,-1.8303,-1.8342,-1.8376,-1.8404,-1.8394,-1.8391,-1.8426,-1.8428,-1.843,-1.8442,-1.8445,-1.8398,-1.8398,-1.8398,0,-1.7611,-1.7687,-1.7738,-1.7789,-1.7828,-1.7873,-1.7919,-1.7963,-1.8051,-1.8077,-1.8081,-1.8207,-1.826,-1.8337,-1.8345,-1.8375,-1.839,-1.8384,-1.8423,-1.8426,-1.8428,-1.844,-1.8445,-1.8396,-1.8397,-1.8397,-1.8397,0,-1.7666,-1.7719,-1.7747,-1.7827,-1.7869,-1.7918,-1.7977,-1.8014,-1.8044,-1.8087,-1.8155,-1.8219,-1.8291,-1.8312,-1.8343,-1.8394,-1.8395,-1.841,-1.8418,-1.8428,-1.8441,-1.8446,-1.8394,-1.8394,-1.8395,-1.8395,0,0,-1.766,-1.7766,-1.7775,-1.7811,-1.7892,-1.7935,-1.7987,-1.8054,-1.8085,-1.8144,-1.8189,-1.8272,-1.8286,-1.8329,-1.8367,-1.8397,-1.8419,-1.8409,-1.8411,-1.8408,-1.8479,-1.8467,-1.8471,-1.8438,-1.8439,-1.844,-1.8473,0,-1.7688,-1.7778,-1.7825,-1.7896,-1.7946,-1.7989,-1.8034,-1.8089,-1.8131,-1.818,-1.8228,-1.8285,-1.8299,-1.8326,-1.8358,-1.841,-1.8435,-1.8408,-1.8482,-1.8484,-1.8462,-1.8478,-1.8466,-1.8494,-1.8478,-1.8479,-1.848,0,-1.7732,-1.7787,-1.7862,-1.7936,-1.7959,-1.7998,-1.8063,-1.811,-1.8174,-1.8202,-1.825,-1.8286,-1.8343,-1.8345,-1.8425,-1.8406,-1.8439,-1.8469,-1.8472,-1.8481,-1.8482,-1.8487,-1.8504,-1.8508,-1.8488,-1.8487,-1.8487,0,-1.7719,-1.7812,-1.7869,-1.7899,-1.7987,-1.8013,-1.8052,-1.8115,-1.8152,-1.8211,-1.8236,-1.8301,-1.8337,-1.8387,-1.844,-1.8437,-1.8515,-1.8522,-1.8541,-1.8539,-1.8555,-1.8554,-1.8577,-1.8577,-1.8577,-1.8577,-1.8577,0,-1.7745,-1.7789,-1.7864,-1.7899,-1.795,-1.8004,-1.8054,-1.8096,-1.8152,-1.8197,-1.824,-1.8282,-1.8349,-1.84,-1.8442,-1.8502,-1.8518,-1.8543,-1.8554,-1.8539,-1.8536,-1.8562,-1.8561,-1.8578,-1.8578,-1.8577,-1.8577,0,-1.7739,-1.779,-1.7855,-1.7932,-1.7952,-1.7987,-1.8054,-1.809,-1.8133,-1.819,-1.8207,-1.8275,-1.8337,-1.8395,-1.8478,-1.8507,-1.8567,-1.8581,-1.8544,-1.855,-1.8565,-1.8563,-1.8606,-1.8615,-1.8608,-1.8608,-1.8608,0,-1.7751,-1.7786,-1.7866,-1.7897,-1.7934,-1.7985,-1.8023,-1.8078,-1.8116,-1.819,-1.8218,-1.8282,-1.8337,-1.8434,-1.8493,-1.8557,-1.8573,-1.8584,-1.8583,-1.8567,-1.8573,-1.857,-1.8574,-1.8583,-1.8582,-1.8582,-1.8582,0,-1.7768,-1.7792,-1.7843,-1.7903,-1.7946,-1.7997,-1.8049,-1.8074,-1.8139,-1.818,-1.8242,-1.8284,-1.8367,-1.8431,-1.8502,-1.8544,-1.8574,-1.8582,-1.8589,-1.8575,-1.8552,-1.8564,-1.8541,-1.8581,-1.8581,-1.8581,-1.8581,-1.8581,-1.7772,-1.7804,-1.7864,-1.792,-1.7965,-1.8012,-1.805,-1.8097,-1.8149,-1.8219,-1.8249,-1.8312,-1.8376,-1.8473,-1.8514,-1.8566,-1.8573,-1.8584,-1.8587,-1.8589,-1.8585,-1.8543,-1.8579,-1.8579,-1.8579,-1.858,-1.858,0,-1.779,-1.7831,-1.7881,-1.7952,-1.7996,-1.8018,-1.8077,-1.8113,-1.8167,-1.8222,-1.8274,-1.8346,-1.8408,-1.847,-1.8536,-1.8565,-1.8581,-1.8581,-1.8579,-1.8588,-1.8576,-1.8562,-1.8567,-1.8567,-1.8567,-1.8567,-1.8567,-1.8567,-1.7805,-1.786,-1.7891,-1.797,-1.8011,-1.8071,-1.8102,-1.8147,-1.8191,-1.8268,-1.8319,-1.8358,-1.8417,-1.8487,-1.8545,-1.8563,-1.8585,-1.8581,-1.8602,-1.8589,-1.8589,-1.859,-1.8577,-1.8585,-1.8585,-1.861,-1.861,-1.861]},{"header":{"parameterUnit":"m.s-1","parameterCategory":1,"la1":30.2991,"la2":30.254,"lo1":-89.0895,"lo2":-89.0444,"dy":0.0017,"dx":0.0017,"nx":28,"ny":28,"refTime":"2025-03-29T03:00:00:Z","depth":0,"parameterNumber":3,"parameterNumberName":"V-component_of_WINDS"},"data":[0,0,0,0,0,0,0,0,0,0,0,0,0,0,0,0,0,0,0,0,0,0,0,0,0,0,0,0,0,0,0,0,0,0,0,0,0,0,0,0,0,0,0,0,0,0,0,0,0,0,0,0,0,0,0,0,0,0,4.6602,4.6606,0,4.6964,4.6968,4.6972,4.7136,4.7135,4.7135,4.7134,4.7507,4.7517,4.7527,0,0,0,0,0,0,0,0,0,0,0,0,0,4.6057,4.6066,4.6602,4.6606,4.6611,4.6963,4.6968,4.6973,4.7136,4.7135,4.7135,4.7134,4.7504,4.7516,4.7528,0,0,0,0,0,0,0,0,0,0,0,0,0,4.6343,4.6069,4.6601,4.6734,4.675,4.6962,4.6968,4.6975,4.7136,4.7135,4.7135,4.7134,4.75,4.7515,4.753,4.7638,0,0,4.7577,4.7584,0,0,0,0,0,0,0,0,4.6327,4.6363,4.671,4.6726,4.6743,4.7004,4.6913,4.7197,4.7136,4.6989,4.7134,4.7134,4.734,4.7369,4.7438,4.7655,4.7671,4.7579,4.7588,4.7595,4.7599,0,0,0,0,0,0,0,4.6307,4.6349,4.6745,4.6715,4.6735,4.6778,4.6818,4.6968,4.7164,4.7002,4.7015,4.7055,4.7349,4.7423,4.7448,4.7677,4.7578,4.7592,4.7601,4.7607,4.8005,4.8006,0,0,0,0,0,0,4.6265,4.6331,4.6734,4.6756,4.6529,4.6788,4.6833,4.6921,4.7163,4.7199,4.7055,4.7062,4.7397,4.743,4.7462,4.7607,4.7594,4.7609,4.7618,4.8003,4.8005,4.8006,0,0,0,0,0,0,4.6252,4.6299,4.6719,4.6547,4.6604,4.6798,4.6896,4.6928,4.7002,4.7203,4.7239,4.7094,4.7398,4.744,4.7594,4.7622,4.7616,4.763,4.8002,4.8004,4.8006,4.7894,0,0,0,0,0,0,4.6236,4.6294,4.6335,4.6547,4.6612,4.6842,4.6897,4.6936,4.7028,4.7039,4.7249,4.7283,4.74,4.757,4.7609,4.7643,4.7642,4.8,4.8003,4.8005,4.7896,4.7892,4.7888,0,0,0,0,0,4.6216,4.6288,4.6336,4.6384,4.6668,4.6844,4.6882,4.7014,4.7029,4.7074,4.7204,4.7276,4.7612,4.7584,4.763,4.7668,4.7999,4.8002,4.8005,4.7898,4.7892,4.7888,0,0,0,0,0,0,4.6074,4.6318,4.6374,4.6517,4.6658,4.6871,4.693,4.7004,4.7145,4.7149,4.731,4.7356,4.7495,4.7598,4.7562,4.7788,4.7812,4.7824,4.7715,4.7712,4.7708,4.768,4.7655,0,0,0,0,0,4.606,4.6181,4.6388,4.6495,4.6563,4.6734,4.6816,4.6906,4.706,4.712,4.7261,4.7408,4.7548,4.7636,4.7775,4.7912,4.7962,4.7962,4.7958,4.7953,4.7962,4.8046,4.8049,4.8016,4.8016,4.8016,0,0,4.6031,4.6179,4.6246,4.647,4.659,4.6714,4.6783,4.691,4.7005,4.714,4.7294,4.7402,4.7578,4.7724,4.7796,4.7814,4.7983,4.7957,4.7952,4.7964,4.8049,4.8052,4.8054,4.8018,4.8018,4.8017,0,0,4.6041,4.6164,4.6268,4.6388,4.6569,4.6684,4.6708,4.6912,4.6989,4.7146,4.7251,4.7367,4.7602,4.7723,4.7816,4.7877,4.795,4.7918,4.7897,4.7977,4.7979,4.7982,4.8006,4.8012,4.7926,4.7925,4.7925,0,4.5982,4.6171,4.6312,4.6435,4.6532,4.6661,4.6768,4.6878,4.7095,4.716,4.7177,4.7478,4.7605,4.7783,4.7798,4.7869,4.7904,4.7894,4.7967,4.7972,4.7977,4.8001,4.8009,4.792,4.7921,4.7921,4.7922,0,4.6091,4.6221,4.6284,4.6491,4.6595,4.6709,4.6869,4.6959,4.7041,4.7154,4.7314,4.7472,4.7646,4.7695,4.7777,4.7887,4.7892,4.7936,4.7964,4.7973,4.7998,4.8009,4.7913,4.7915,4.7916,4.7918,0,0,4.602,4.6306,4.6327,4.6424,4.6636,4.674,4.6862,4.7033,4.7107,4.7254,4.7361,4.756,4.7603,4.7708,4.7805,4.7874,4.7916,4.7911,4.7918,4.7907,4.8049,4.8015,4.8023,4.7966,4.7968,4.797,4.8035,0,4.6061,4.6283,4.6415,4.6584,4.6708,4.6835,4.6942,4.7084,4.7194,4.7316,4.7439,4.7577,4.7623,4.7687,4.7762,4.7894,4.7946,4.7892,4.8069,4.8074,4.8021,4.8037,4.8,4.8054,4.8046,4.8048,4.8049,0,4.6137,4.6281,4.6462,4.6664,4.6721,4.6814,4.6983,4.7098,4.7264,4.7339,4.7458,4.7556,4.7692,4.771,4.7902,4.7861,4.7943,4.8019,4.8024,4.8046,4.8061,4.8059,4.8074,4.8082,4.8066,4.8065,4.8063,0,4.6068,4.6309,4.6449,4.6528,4.6766,4.6829,4.6931,4.7096,4.7192,4.734,4.7404,4.7566,4.7655,4.778,4.792,4.792,4.8099,4.8127,4.8167,4.8163,4.8198,4.8193,4.8226,4.8249,4.8249,4.8248,4.8248,0,4.61,4.6206,4.6422,4.6508,4.6633,4.6785,4.6904,4.7017,4.7164,4.7276,4.7396,4.7499,4.7678,4.7804,4.7915,4.8058,4.8097,4.8163,4.8191,4.8153,4.8144,4.8208,4.8208,4.8251,4.825,4.825,4.8249,0,4.6044,4.6192,4.6354,4.6567,4.6623,4.6705,4.6888,4.6978,4.7096,4.7237,4.7279,4.7463,4.7618,4.7771,4.7979,4.8054,4.8196,4.8233,4.8139,4.8155,4.8186,4.8181,4.826,4.8279,4.8287,4.8287,4.8287,0,4.6054,4.6139,4.6361,4.6445,4.6544,4.6677,4.6776,4.693,4.7028,4.7226,4.7292,4.7456,4.7596,4.7838,4.7991,4.8152,4.8195,4.8212,4.822,4.8179,4.8197,4.819,4.8201,4.8207,4.8206,4.8205,4.8205,0,4.6057,4.6127,4.6263,4.6427,4.6541,4.6677,4.6818,4.688,4.7063,4.7167,4.7327,4.7435,4.7649,4.7811,4.799,4.8098,4.8183,4.8202,4.822,4.8181,4.8123,4.8156,4.8128,4.8199,4.8199,4.82,4.82,4.82,4.6036,4.6118,4.6288,4.6438,4.656,4.6689,4.6785,4.6915,4.7051,4.7236,4.732,4.7482,4.765,4.79,4.8006,4.8136,4.8158,4.8183,4.819,4.8194,4.8186,4.8102,4.817,4.817,4.817,4.8171,4.8171,0,4.6046,4.6162,4.6298,4.6492,4.661,4.6679,4.684,4.6934,4.7074,4.7223,4.7359,4.7544,4.7703,4.787,4.8039,4.8111,4.8155,4.815,4.8147,4.8171,4.8156,4.8124,4.8113,4.8113,4.8113,4.8113,4.8113,4.8113,4.6066,4.621,4.63,4.6508,4.6625,4.6783,4.6869,4.699,4.711,4.7311,4.7444,4.7552,4.771,4.7892,4.8041,4.8087,4.8144,4.8129,4.8185,4.8168,4.8171,4.8175,4.8146,4.8139,4.814,4.819,4.819,4.819]}]]